Location: Jastrzębia Góra
(54.8312°N, 18.3037°E)
Time: 00:52:00
(UTC+01:00)

ISS - Pass Details

Date: 01 February 2019
Orbit: 403 x 411 km, 51.6° (Epoch: 17 February)

Event Time Altitude Azimuth Distance (km) Brightness Sun altitude
Rises 18:55:54 0° 271° (W) 2,339 1.6 -21.8°
Reaches altitude 10° 18:58:02 10° 263° (W) 1,478 0.1 -22.1°
Enters shadow 19:00:40 37° 218° (SW) 656 -2.6 -22.5°
